Flag for Norway Weather past 2 weeks in Eidsvoll, Norway

Now
79 °F

Sunny.


Feels Like: 79 °F
Forecast: 61 / 76 °F
Wind: 1 mph from North

Location: Oslo Gardermoen Airport

Current Time: Jul 25, 2014 at 10:45:04 PM

Latest Report: Jul 25, 2014 at 9:50 PM


Visibility: 10 mi

Pressure: 30.12 "Hg

Humidity: 42%

Dew point: 54 °F

Location of EidsvollLocation

Historic Weather in Eidsvoll — Graph

°F

Eidsvoll temperature yesterday

Maximum temperature yesterday: 88 °F (at 2:50 PM)
Minimum temperature yesterday: 61 °F (at 6:20 AM)
Average temperature yesterday: 72 °F

Past Weeks' High & Low Weather Summary

 TemperatureHumidityPressure
High88 °F (Jul 23, 4:50 PM)100% (Jul 16, 12:50 AM)30.33 "Hg (Jul 16, 12:50 AM)
Low50 °F (Jul 18, 3:20 AM)24% (Jul 23, 6:50 PM)29.68 "Hg (Jul 14, 1:20 AM)
Average68 °F63%30.05 "Hg
* Reported Jul 10 9:20 PM — Jul 25 9:50 PM, Eidsvoll, Weather by CustomWeather, © 2014

Note: Actual official high and low records may vary slightly from our data, if they occured in-between our weather recording intervals... More about our weather records

Advertising

Eidsvoll weather history for previous 24 hours

 ConditionsComfort  
Time TempWeatherWind HumidityBarometerVisibility
9:50 PM
Jul 25
79 °FSunny.1 mph42%30.12 "Hg10 mi
9:20 PM81 °FSunny.3 mph39%30.12 "Hg10 mi
8:50 PM81 °FSunny.5 mph42%30.12 "Hg10 mi
8:20 PM82 °FPassing clouds.3 mph37%30.12 "HgN/A
7:50 PM84 °FSunny.3 mph31%30.12 "Hg10 mi
7:20 PM84 °FPassing clouds.5 mph31%30.12 "HgN/A
6:50 PM86 °FPassing clouds.5 mph29%30.12 "HgN/A
6:20 PM84 °FPassing clouds.5 mph31%30.12 "HgN/A
5:50 PM84 °FSunny.3 mph29%30.12 "Hg10 mi
5:20 PM84 °FPassing clouds.5 mph29%30.12 "HgN/A
4:50 PM84 °FPassing clouds.5 mph31%30.12 "HgN/A
4:20 PM84 °FPassing clouds.6 mph31%30.15 "HgN/A
3:50 PM84 °FPassing clouds.5 mph31%30.15 "HgN/A
3:20 PM82 °FPassing clouds.3 mph37%30.15 "HgN/A
2:50 PM82 °FSunny.3 mph37%30.15 "Hg10 mi
2:20 PM82 °FPassing clouds.2 mph37%30.18 "HgN/A
1:50 PM82 °FPassing clouds.7 mph40%30.18 "HgN/A
1:20 PM81 °FSunny.5 mph45%30.18 "Hg10 mi
12:50 PM81 °FSunny.6 mph45%30.18 "Hg10 mi
12:20 PM79 °FSunny.3 mph48%30.18 "Hg10 mi
11:50 AM79 °FSunny.3 mph45%30.21 "Hg10 mi
11:20 AM77 °FSunny.3 mph51%30.21 "Hg10 mi
10:50 AM75 °FSunny.2 mph57%30.21 "Hg10 mi
10:20 AM75 °FSunny.2 mph61%30.21 "Hg10 mi
9:50 AM73 °FPassing clouds.3 mph65%30.21 "HgN/A
9:20 AM72 °FSunny.6 mph73%30.21 "Hg10 mi
8:50 AM70 °FPassing clouds.5 mph73%30.21 "HgN/A
8:20 AM68 °FPassing clouds.3 mph73%30.21 "HgN/A
7:50 AM66 °FPassing clouds.3 mph83%30.21 "HgN/A
7:20 AM64 °FSunny.5 mph88%30.21 "Hg10 mi
6:50 AM63 °FPassing clouds.3 mph88%30.21 "HgN/A
6:20 AM63 °FSunny.2 mph88%30.21 "Hg10 mi
5:50 AM63 °FSunny.5 mph88%30.21 "Hg10 mi
5:20 AM63 °FClear.2 mph88%30.21 "Hg10 mi
4:50 AM63 °FClear.2 mph88%30.21 "Hg10 mi
4:20 AM64 °FClear.No wind83%30.21 "Hg10 mi
3:50 AM64 °FClear.1 mph83%30.21 "Hg10 mi
3:20 AM64 °FClear.6 mph83%30.21 "Hg10 mi
2:50 AM64 °FClear.1 mph83%30.21 "Hg10 mi
2:20 AM64 °FPassing clouds.3 mph83%30.21 "HgN/A
1:50 AM64 °FPassing clouds.6 mph78%30.21 "HgN/A
1:20 AM64 °FPassing clouds.5 mph78%30.21 "HgN/A
12:50 AM64 °FPassing clouds.5 mph78%30.21 "HgN/A
12:20 AM64 °FClear.2 mph83%30.21 "Hg10 mi
11:50 PM
Jul 24
64 °FClear.7 mph83%30.21 "Hg10 mi
11:20 PM64 °FPassing clouds.5 mph83%30.21 "HgN/A
10:50 PM66 °FScattered showers. Scattered clouds.2 mph78%30.21 "HgN/A
10:20 PM64 °FScattered showers. Partly sunny.3 mph83%30.24 "HgN/A
Weather by CustomWeather, © 2014

See weather overviewHow to use our weather pages